Location: Unspecified
(0.0000°N, 0.0000°E)
Time: 17:50:24
(UTC+00:00)

STARLINK 1013 - Pass Details

Date: 17 January 2020
Orbit: 348 x 351 km, 53.0° (Epoch: 18 January)

Event Time Altitude Azimuth Distance (km) Brightness Sun altitude
Rises 05:22:43 0° 211° (SSW) 2,148 6.5 -11.0°
Reaches altitude 10° 05:24:44 10° 209° (SSW) 1,303 5.5 -10.5°
Maximum altitude 05:27:37 71° 124° (SE) 368 2.9 -9.9°
Drops below altitude 10° 05:30:29 10° 39° (NE) 1,295 5.8 -9.2°
Sets 05:32:29 0° 37° (NE) 2,132 6.9 -8.7°
